User: anonymous   Login
Location: Unspecified
(0.0000°N, 0.0000°E)
Time: 05:16:55
(UTC+00:00)
Language:

TANYUSHA 2 - Orbit

View from above orbital plane
View from above orbital plane
View from above satellite
View from above satellite

Ground track
Ground track

The orbit data is extracted from the following two-line orbital elements,

1 42912U 98067NB  19083.72687508  .00043935  00000-0  24465-3 0  9990
2 42912  51.6358  12.2325 0003912 168.6978 275.3597 15.78984341 91472
Epoch (UTC): 24 March 2019 17:26:42
Eccentricity: 0.0003912
inclination: 51.6358°
perigee height: 330 km
apogee height: 336 km
right ascension of ascending node: 12.2325°
argument of perigee: 168.6978°
revolutions per day: 15.78984341
mean anomaly at epoch: 275.3597°
orbit number at epoch: 9147

The dashed part of the orbit path shows where the satellite is in the earth's shadow,  

DLR